WZZ4141 EYVI-LATI

Flight info

Callsign WZZ4141
Flight time 2h 8m
Altitude 37000
Route UPASI DCT PAFRA DCT UNPEG M857 DUFES DCT RIGSA DCT INVED DCT RISTU DCT MODRA N142 AKIKA T8 INLOT
Aircraft A321/M-SDE1E2E3FGIJ1J4RWXY/LB1

Departure

Time 2026-05-06 17:42
Airport Vilnius International Airport (EYVI)

Arrival

Time 2026-05-06 19:50
Airport Tirana International Airport Mother Teresa (LATI)
Time Latitude Longitude Altitude Speed Heading
2026-05-06 17:24 54.64268 25.28541 606 ft 0 kts 356°
2026-05-06 17:34 54.64269 25.28541 606 ft 1 kts 356°
2026-05-06 17:34 54.64308 25.28564 606 ft 11 kts 62°
2026-05-06 17:34 54.64286 25.28663 606 ft 10 kts 162°
2026-05-06 17:35 54.64195 25.28683 606 ft 17 kts 174°
2026-05-06 17:35 54.64066 25.28705 606 ft 18 kts 178°
2026-05-06 17:35 54.63947 25.28642 606 ft 19 kts 202°
2026-05-06 17:36 54.63666 25.28449 606 ft 20 kts 201°
2026-05-06 17:36 54.63536 25.28356 606 ft 19 kts 202°
2026-05-06 17:36 54.63395 25.28260 606 ft 22 kts 201°
2026-05-06 17:36 54.63254 25.28162 606 ft 21 kts 202°
2026-05-06 17:37 54.63122 25.28070 606 ft 20 kts 201°
2026-05-06 17:37 54.62995 25.27984 606 ft 19 kts 201°
2026-05-06 17:37 54.62866 25.27892 606 ft 21 kts 201°
2026-05-06 17:37 54.62729 25.27799 606 ft 20 kts 202°
2026-05-06 17:38 54.62602 25.27710 606 ft 19 kts 202°
2026-05-06 17:38 54.62495 25.27694 606 ft 15 kts 148°
2026-05-06 17:38 54.62419 25.27810 606 ft 13 kts 125°
2026-05-06 17:38 54.62437 25.27904 606 ft 9 kts 20°
2026-05-06 17:39 54.62456 25.27916 606 ft 0 kts 19°
2026-05-06 17:41 54.62490 25.27938 606 ft 24 kts 21°
2026-05-06 17:41 54.62880 25.28209 606 ft 94 kts 21°
2026-05-06 17:41 54.63693 25.28772 606 ft 153 kts 22°
2026-05-06 17:42 54.64768 25.29519 900 ft 175 kts 24°
2026-05-06 17:42 54.65878 25.30286 1644 ft 171 kts 23°
2026-05-06 17:42 54.66961 25.31021 2168 ft 170 kts 24°
2026-05-06 17:42 54.68091 25.31796 2430 ft 183 kts 24°
2026-05-06 17:43 54.69328 25.32646 2698 ft 197 kts 24°
2026-05-06 17:43 54.70637 25.33549 2975 ft 211 kts 24°
2026-05-06 17:43 54.72082 25.34548 3223 ft 231 kts 23°
2026-05-06 17:43 54.73598 25.35591 3678 ft 242 kts 23°
2026-05-06 17:44 54.75160 25.36668 4395 ft 243 kts 23°
2026-05-06 17:44 54.76720 25.37743 5045 ft 246 kts 23°
2026-05-06 17:44 54.78368 25.38562 5643 ft 254 kts
2026-05-06 17:44 54.80114 25.38073 6296 ft 260 kts 335°
2026-05-06 17:45 54.81572 25.36118 6776 ft 271 kts 304°
2026-05-06 17:45 54.82427 25.33132 7227 ft 283 kts 289°
2026-05-06 17:45 54.83112 25.29926 7938 ft 287 kts 288°
2026-05-06 17:45 54.83606 25.26589 8656 ft 287 kts 271°
2026-05-06 17:46 54.83308 25.23200 9376 ft 284 kts 245°
2026-05-06 17:46 54.82231 25.20401 10083 ft 282 kts 221°
2026-05-06 17:46 54.80574 25.18570 10487 ft 293 kts 202°
2026-05-06 17:46 54.78622 25.17241 10791 ft 310 kts 200°
2026-05-06 17:47 54.76566 25.15901 11238 ft 320 kts 200°
2026-05-06 17:47 54.74485 25.14514 11899 ft 322 kts 201°
2026-05-06 17:47 54.72440 25.13056 12538 ft 325 kts 206°
2026-05-06 17:47 54.70480 25.11034 13164 ft 328 kts 216°
2026-05-06 17:48 54.68753 25.08479 13784 ft 330 kts 223°
2026-05-06 17:48 54.67123 25.05690 14398 ft 333 kts 225°
2026-05-06 17:48 54.65505 25.02865 14988 ft 336 kts 225°
2026-05-06 17:48 54.63851 24.99987 15578 ft 338 kts 225°
2026-05-06 17:49 54.62187 24.97108 16152 ft 341 kts 225°
2026-05-06 17:49 54.60510 24.94223 16712 ft 344 kts 225°
2026-05-06 17:49 54.58828 24.91339 17256 ft 346 kts 225°
2026-05-06 17:49 54.57101 24.88384 17796 ft 349 kts 225°
2026-05-06 17:50 54.55393 24.85468 18313 ft 352 kts 225°
2026-05-06 17:50 54.53636 24.82472 18828 ft 355 kts 225°
2026-05-06 17:50 54.51897 24.79500 19321 ft 357 kts 227°
2026-05-06 17:50 54.50313 24.76231 19795 ft 359 kts 236°
2026-05-06 17:51 54.49034 24.72522 20269 ft 361 kts 245°
2026-05-06 17:51 54.48053 24.68570 20739 ft 364 kts 249°
2026-05-06 17:51 54.47132 24.64517 21199 ft 366 kts 249°
2026-05-06 17:51 54.46213 24.60433 21649 ft 368 kts 249°
2026-05-06 17:52 54.45277 24.56297 22093 ft 371 kts 250°
2026-05-06 17:52 54.44345 24.52208 22521 ft 373 kts 250°
2026-05-06 17:52 54.43384 24.48013 22943 ft 375 kts 250°
2026-05-06 17:52 54.42425 24.43847 23348 ft 378 kts 250°
2026-05-06 17:53 54.41458 24.39655 23741 ft 380 kts 250°
2026-05-06 17:53 54.40488 24.35463 24120 ft 383 kts 250°
2026-05-06 17:53 54.39493 24.31174 24498 ft 385 kts 249°
2026-05-06 17:53 54.38509 24.26919 24859 ft 387 kts 250°
2026-05-06 17:54 54.37554 24.22584 25216 ft 390 kts 251°
2026-05-06 17:54 54.36620 24.18265 25562 ft 392 kts 251°
2026-05-06 17:54 54.35665 24.13850 25905 ft 394 kts 251°
2026-05-06 17:54 54.34701 24.09427 26240 ft 397 kts 251°
2026-05-06 17:55 54.33734 24.05006 26565 ft 399 kts 251°
2026-05-06 17:55 54.32756 24.00552 26884 ft 402 kts 251°
2026-05-06 17:55 54.31716 23.96088 27187 ft 405 kts 246°
2026-05-06 17:55 54.30257 23.91939 27473 ft 410 kts 235°
2026-05-06 17:56 54.28308 23.88283 27765 ft 416 kts 224°
2026-05-06 17:56 54.26064 23.85195 28060 ft 419 kts 220°
2026-05-06 17:56 54.23734 23.82200 28336 ft 422 kts 219°
2026-05-06 17:56 54.21368 23.79191 28600 ft 425 kts 219°
2026-05-06 17:57 54.19017 23.76198 28875 ft 427 kts 219°
2026-05-06 17:57 54.16648 23.73175 29162 ft 428 kts 219°
2026-05-06 17:57 54.14256 23.70117 29422 ft 430 kts 219°
2026-05-06 17:57 54.11829 23.67013 29672 ft 433 kts 220°
2026-05-06 17:58 54.09406 23.63915 29915 ft 435 kts 220°
2026-05-06 17:58 54.06970 23.60804 30154 ft 437 kts 220°
2026-05-06 17:58 54.04549 23.57715 30385 ft 439 kts 220°
2026-05-06 17:58 54.02083 23.54573 30613 ft 441 kts 220°
2026-05-06 17:59 53.99645 23.51471 30832 ft 443 kts 220°
2026-05-06 17:59 53.97177 23.48335 31048 ft 445 kts 220°
2026-05-06 17:59 53.94704 23.45198 31259 ft 447 kts 220°
2026-05-06 17:59 53.92195 23.42019 31525 ft 448 kts 220°
2026-05-06 18:00 53.89720 23.38889 31822 ft 447 kts 220°
2026-05-06 18:00 53.87210 23.35720 32104 ft 447 kts 220°
2026-05-06 18:00 53.84719 23.32580 32365 ft 447 kts 219°
2026-05-06 18:00 53.82212 23.29425 32616 ft 448 kts 219°
2026-05-06 18:01 53.79734 23.26308 32865 ft 448 kts 219°
2026-05-06 18:01 53.77246 23.23186 33115 ft 448 kts 219°
2026-05-06 18:01 53.74756 23.20065 33361 ft 448 kts 219°
2026-05-06 18:01 53.72257 23.16937 33601 ft 448 kts 219°
2026-05-06 18:02 53.69765 23.13824 33836 ft 448 kts 219°
2026-05-06 18:02 53.67245 23.10680 34069 ft 448 kts 219°
2026-05-06 18:02 53.64750 23.07572 34300 ft 448 kts 219°
2026-05-06 18:02 53.62262 23.04478 34537 ft 448 kts 219°
2026-05-06 18:03 53.59753 23.01361 34777 ft 447 kts 219°
2026-05-06 18:03 53.57269 22.98283 35010 ft 447 kts 219°
2026-05-06 18:03 53.54753 22.95167 35216 ft 447 kts 219°
2026-05-06 18:03 53.52261 22.92086 35393 ft 448 kts 219°
2026-05-06 18:04 53.49768 22.89009 35562 ft 448 kts 219°
2026-05-06 18:04 53.47256 22.85912 35733 ft 449 kts 219°
2026-05-06 18:04 53.44758 22.82838 35902 ft 449 kts 219°
2026-05-06 18:04 53.42244 22.79750 36066 ft 449 kts 219°
2026-05-06 18:05 53.39713 22.76646 36224 ft 450 kts 219°
2026-05-06 18:05 53.37172 22.73533 36366 ft 450 kts 219°
2026-05-06 18:05 53.34642 22.70440 36498 ft 451 kts 219°
2026-05-06 18:05 53.32098 22.67390 36622 ft 453 kts 217°
2026-05-06 18:06 53.29435 22.64572 36742 ft 455 kts 213°
2026-05-06 18:06 53.26626 22.62041 36772 ft 457 kts 208°
2026-05-06 18:06 53.20715 22.58029 36777 ft 461 kts 200°
2026-05-06 18:07 53.14476 22.55379 36788 ft 462 kts 194°
2026-05-06 18:07 53.08232 22.53138 36796 ft 462 kts 194°
2026-05-06 18:08 53.01911 22.50852 36800 ft 460 kts 195°
2026-05-06 18:08 52.95699 22.48594 36802 ft 458 kts 195°
2026-05-06 18:09 52.89523 22.46353 36802 ft 457 kts 195°
2026-05-06 18:09 52.83305 22.44103 36802 ft 457 kts 195°
2026-05-06 18:10 52.77123 22.41873 36802 ft 457 kts 195°
2026-05-06 18:10 52.70939 22.39649 36802 ft 457 kts 195°
2026-05-06 18:11 52.64728 22.37426 36802 ft 457 kts 195°
2026-05-06 18:11 52.58532 22.35216 36802 ft 457 kts 195°
2026-05-06 18:12 52.52324 22.33011 36803 ft 457 kts 194°
2026-05-06 18:12 52.46148 22.30824 36802 ft 457 kts 194°
2026-05-06 18:13 52.39946 22.28631 36802 ft 457 kts 194°
2026-05-06 18:13 52.33750 22.26444 36802 ft 457 kts 194°
2026-05-06 18:14 52.27568 22.24272 36802 ft 457 kts 194°
2026-05-06 18:14 52.21368 22.22102 36802 ft 457 kts 194°
2026-05-06 18:15 52.15149 22.19936 36802 ft 457 kts 193°
2026-05-06 18:15 52.08931 22.18039 36802 ft 458 kts 192°
2026-05-06 18:16 52.02708 22.16230 36802 ft 458 kts 192°
2026-05-06 18:16 51.96432 22.14390 36802 ft 458 kts 192°
2026-05-06 18:17 51.90199 22.12558 36802 ft 458 kts 192°
2026-05-06 18:17 51.83946 22.10724 36802 ft 458 kts 192°
2026-05-06 18:18 51.77705 22.08894 36802 ft 458 kts 192°
2026-05-06 18:18 51.71461 22.07074 36802 ft 458 kts 192°
2026-05-06 18:19 51.65241 22.05270 36802 ft 458 kts 192°
2026-05-06 18:19 51.58993 22.03459 36802 ft 458 kts 192°
2026-05-06 18:20 51.52758 22.01648 36802 ft 458 kts 192°
2026-05-06 18:20 51.46519 21.99844 36802 ft 458 kts 192°
2026-05-06 18:21 51.40260 21.98045 36802 ft 458 kts 192°
2026-05-06 18:21 51.34002 21.96300 36802 ft 458 kts 192°
2026-05-06 18:22 51.27790 21.94584 36798 ft 458 kts 192°
2026-05-06 18:22 51.21529 21.92859 36793 ft 458 kts 192°
2026-05-06 18:23 51.15276 21.91136 36790 ft 458 kts 192°
2026-05-06 18:23 51.09007 21.89385 36787 ft 458 kts 192°
2026-05-06 18:24 51.02786 21.87639 36784 ft 458 kts 192°
2026-05-06 18:24 50.96500 21.85873 36785 ft 460 kts 192°
2026-05-06 18:25 50.90235 21.84121 36795 ft 463 kts 192°
2026-05-06 18:25 50.83861 21.82349 36810 ft 466 kts 192°
2026-05-06 18:26 50.77491 21.80584 36819 ft 466 kts 192°
2026-05-06 18:26 50.71138 21.78832 36824 ft 466 kts 192°
2026-05-06 18:27 50.64790 21.77083 36827 ft 466 kts 192°
2026-05-06 18:27 50.58426 21.75328 36829 ft 466 kts 192°
2026-05-06 18:28 50.52009 21.73557 36831 ft 466 kts 192°
2026-05-06 18:28 50.45675 21.71818 36831 ft 466 kts 192°
2026-05-06 18:29 50.39290 21.70071 36830 ft 466 kts 192°
2026-05-06 18:29 50.32898 21.68330 36831 ft 466 kts 192°
2026-05-06 18:30 50.26538 21.66602 36830 ft 466 kts 192°
2026-05-06 18:30 50.20193 21.64882 36830 ft 466 kts 192°
2026-05-06 18:31 50.13831 21.63164 36831 ft 466 kts 192°
2026-05-06 18:31 50.07449 21.61444 36830 ft 466 kts 192°
2026-05-06 18:32 50.01071 21.59728 36832 ft 466 kts 192°
2026-05-06 18:32 49.94703 21.58021 36831 ft 465 kts 192°
2026-05-06 18:33 49.88380 21.56331 36829 ft 465 kts 192°
2026-05-06 18:33 49.82011 21.54635 36830 ft 466 kts 192°
2026-05-06 18:34 49.75634 21.52939 36831 ft 466 kts 192°
2026-05-06 18:34 49.69264 21.51249 36831 ft 466 kts 192°
2026-05-06 18:35 49.62906 21.49569 36830 ft 466 kts 192°
2026-05-06 18:35 49.56560 21.47812 36831 ft 465 kts 194°
2026-05-06 18:36 49.50238 21.45642 36835 ft 465 kts 195°
2026-05-06 18:36 49.43890 21.43445 36844 ft 464 kts 195°
2026-05-06 18:37 49.37573 21.41300 36857 ft 465 kts 195°
2026-05-06 18:37 49.31255 21.39178 36869 ft 465 kts 195°
2026-05-06 18:38 49.24960 21.37075 36879 ft 465 kts 195°
2026-05-06 18:38 49.18632 21.34966 36884 ft 465 kts 194°
2026-05-06 18:39 49.12310 21.32867 36885 ft 465 kts 194°
2026-05-06 18:40 49.02816 21.29727 36885 ft 466 kts 194°
2026-05-06 18:40 48.96487 21.27640 36885 ft 467 kts 194°
2026-05-06 18:41 48.90136 21.25547 36885 ft 468 kts 194°
2026-05-06 18:41 48.83771 21.23458 36885 ft 467 kts 194°
2026-05-06 18:42 48.77420 21.21380 36886 ft 468 kts 194°
2026-05-06 18:42 48.71026 21.19292 36886 ft 468 kts 194°
2026-05-06 18:43 48.64693 21.17228 36885 ft 468 kts 194°
2026-05-06 18:43 48.58325 21.15159 36886 ft 468 kts 194°
2026-05-06 18:44 48.51988 21.13104 36886 ft 468 kts 194°
2026-05-06 18:44 48.45593 21.11038 36886 ft 467 kts 194°
2026-05-06 18:45 48.39237 21.08990 36885 ft 468 kts 194°
2026-05-06 18:45 48.32860 21.06939 36885 ft 469 kts 194°
2026-05-06 18:46 48.26473 21.04891 36885 ft 470 kts 195°
2026-05-06 18:46 48.20094 21.02850 36886 ft 470 kts 195°
2026-05-06 18:47 48.13683 21.00805 36885 ft 471 kts 195°
2026-05-06 18:47 48.07283 20.98768 36887 ft 472 kts 195°
2026-05-06 18:48 48.00885 20.96736 36889 ft 473 kts 195°
2026-05-06 18:48 47.94471 20.94705 36893 ft 473 kts 195°
2026-05-06 18:49 47.88040 20.92675 36895 ft 474 kts 195°
2026-05-06 18:49 47.81617 20.90651 36901 ft 475 kts 195°
2026-05-06 18:50 47.75200 20.88634 36907 ft 476 kts 195°
2026-05-06 18:50 47.68721 20.86601 36910 ft 476 kts 195°
2026-05-06 18:51 47.62270 20.84584 36911 ft 476 kts 195°
2026-05-06 18:51 47.55817 20.82570 36911 ft 476 kts 195°
2026-05-06 18:52 47.49379 20.80566 36908 ft 476 kts 195°
2026-05-06 18:52 47.42895 20.78554 36905 ft 476 kts 195°
2026-05-06 18:53 47.36422 20.76551 36899 ft 476 kts 195°
2026-05-06 18:53 47.29975 20.74559 36893 ft 476 kts 195°
2026-05-06 18:54 47.23504 20.72568 36889 ft 476 kts 195°
2026-05-06 18:54 47.17058 20.70585 36887 ft 476 kts 195°
2026-05-06 18:55 47.10612 20.68610 36887 ft 476 kts 195°
2026-05-06 18:55 47.04144 20.66634 36887 ft 476 kts 195°
2026-05-06 18:56 46.97709 20.64669 36887 ft 477 kts 195°
2026-05-06 18:56 46.91224 20.62696 36887 ft 478 kts 195°
2026-05-06 18:57 46.84713 20.60720 36886 ft 479 kts 195°
2026-05-06 18:57 46.78200 20.58750 36887 ft 479 kts 195°
2026-05-06 18:58 46.71694 20.56786 36887 ft 479 kts 195°
2026-05-06 18:58 46.65201 20.54831 36888 ft 479 kts 195°
2026-05-06 18:59 46.58684 20.52873 36888 ft 479 kts 195°
2026-05-06 18:59 46.52208 20.50932 36888 ft 479 kts 195°
2026-05-06 19:00 46.45691 20.48984 36890 ft 479 kts 195°
2026-05-06 19:00 46.39188 20.47045 36895 ft 479 kts 195°
2026-05-06 19:01 46.32689 20.45112 36901 ft 479 kts 195°
2026-05-06 19:01 46.26197 20.43188 36911 ft 479 kts 195°
2026-05-06 19:02 46.19685 20.41264 36925 ft 479 kts 195°
2026-05-06 19:02 46.13161 20.39364 36934 ft 479 kts 194°
2026-05-06 19:03 46.06632 20.37583 36938 ft 479 kts 194°
2026-05-06 19:03 46.00098 20.35818 36939 ft 479 kts 194°
2026-05-06 19:04 45.93600 20.34059 36938 ft 480 kts 193°
2026-05-06 19:04 45.87078 20.32296 36934 ft 480 kts 194°
2026-05-06 19:05 45.80512 20.30524 36930 ft 480 kts 194°
2026-05-06 19:05 45.73994 20.28769 36925 ft 480 kts 194°
2026-05-06 19:06 45.67479 20.27018 36919 ft 480 kts 194°
2026-05-06 19:06 45.60918 20.25260 36916 ft 480 kts 194°
2026-05-06 19:07 45.54393 20.23515 36916 ft 480 kts 193°
2026-05-06 19:07 45.47852 20.21770 36964 ft 480 kts 193°
2026-05-06 19:08 45.41313 20.20031 37008 ft 480 kts 193°
2026-05-06 19:08 45.34770 20.18294 37032 ft 479 kts 193°
2026-05-06 19:09 45.28259 20.16570 37043 ft 479 kts 193°
2026-05-06 19:09 45.21717 20.14841 37047 ft 479 kts 193°
2026-05-06 19:10 45.15221 20.13129 37049 ft 479 kts 193°
2026-05-06 19:10 45.08679 20.11408 37050 ft 479 kts 193°
2026-05-06 19:11 45.02156 20.09695 37050 ft 479 kts 193°
2026-05-06 19:11 44.95640 20.07990 37050 ft 479 kts 193°
2026-05-06 19:12 44.89116 20.06290 37048 ft 478 kts 193°
2026-05-06 19:12 44.82565 20.04587 37050 ft 478 kts 193°
2026-05-06 19:13 44.76065 20.02902 37050 ft 478 kts 193°
2026-05-06 19:13 44.69520 20.01198 37050 ft 478 kts 193°
2026-05-06 19:14 44.63009 19.99513 37050 ft 478 kts 193°
2026-05-06 19:14 44.56526 19.97843 37050 ft 478 kts 193°
2026-05-06 19:15 44.49984 19.96161 37050 ft 478 kts 193°
2026-05-06 19:15 44.43447 19.94486 37050 ft 478 kts 193°
2026-05-06 19:16 44.36962 19.92827 37050 ft 479 kts 193°
2026-05-06 19:16 44.30439 19.91163 37050 ft 478 kts 193°
2026-05-06 19:17 44.23895 19.89497 37050 ft 478 kts 193°
2026-05-06 19:17 44.17358 19.87836 37050 ft 478 kts 193°
2026-05-06 19:18 44.10840 19.86184 37050 ft 478 kts 193°
2026-05-06 19:18 44.04321 19.84535 37050 ft 478 kts 193°
2026-05-06 19:19 43.97808 19.82894 37050 ft 478 kts 193°
2026-05-06 19:19 43.91288 19.81252 37050 ft 478 kts 193°
2026-05-06 19:20 43.84790 19.79619 37049 ft 479 kts 193°
2026-05-06 19:20 43.78266 19.77985 37050 ft 479 kts 193°
2026-05-06 19:21 43.71708 19.76346 37050 ft 478 kts 193°
2026-05-06 19:21 43.65229 19.74728 37050 ft 478 kts 193°
2026-05-06 19:22 43.58711 19.73107 37050 ft 478 kts 193°
2026-05-06 19:22 43.52159 19.71479 37028 ft 478 kts 193°
2026-05-06 19:23 43.45649 19.69865 37001 ft 479 kts 193°
2026-05-06 19:23 43.39112 19.68249 36985 ft 478 kts 193°
2026-05-06 19:24 43.32595 19.66642 36978 ft 478 kts 193°
2026-05-06 19:24 43.26065 19.65036 36991 ft 479 kts 193°
2026-05-06 19:25 43.19568 19.63440 37024 ft 479 kts 193°
2026-05-06 19:25 43.13035 19.61843 37059 ft 478 kts 193°
2026-05-06 19:26 43.06479 19.60242 37076 ft 478 kts 193°
2026-05-06 19:26 43.03182 19.59522 36817 ft 479 kts 190°
2026-05-06 19:26 42.99907 19.59069 36417 ft 478 kts 186°
2026-05-06 19:26 42.96606 19.58905 35833 ft 479 kts 182°
2026-05-06 19:27 42.93289 19.58986 35159 ft 481 kts 180°
2026-05-06 19:27 42.89941 19.59116 34475 ft 483 kts 179°
2026-05-06 19:27 42.86581 19.59249 33767 ft 484 kts 179°
2026-05-06 19:27 42.83237 19.59373 33054 ft 486 kts 179°
2026-05-06 19:28 42.79851 19.59491 32334 ft 487 kts 179°
2026-05-06 19:28 42.76481 19.59604 31598 ft 489 kts 179°
2026-05-06 19:28 42.73119 19.59713 30865 ft 490 kts 179°
2026-05-06 19:28 42.69711 19.59825 30327 ft 485 kts 179°
2026-05-06 19:29 42.66373 19.59935 29865 ft 479 kts 179°
2026-05-06 19:29 42.63092 19.60044 29398 ft 474 kts 179°
2026-05-06 19:29 42.59836 19.60149 28912 ft 469 kts 178°
2026-05-06 19:29 42.56595 19.60231 28421 ft 465 kts 180°
2026-05-06 19:30 42.53403 19.60047 27927 ft 461 kts 185°
2026-05-06 19:30 42.50256 19.59509 27453 ft 456 kts 190°
2026-05-06 19:30 42.47150 19.58698 26981 ft 452 kts 192°
2026-05-06 19:30 42.44065 19.57836 26503 ft 447 kts 192°
2026-05-06 19:31 42.41051 19.56989 26043 ft 443 kts 192°
2026-05-06 19:31 42.38089 19.56163 25573 ft 439 kts 191°
2026-05-06 19:31 42.32156 19.54534 24650 ft 430 kts 191°
2026-05-06 19:32 42.29263 19.53743 24195 ft 427 kts 191°
2026-05-06 19:32 42.26378 19.52955 23740 ft 423 kts 191°
2026-05-06 19:32 42.23537 19.52183 23294 ft 419 kts 191°
2026-05-06 19:32 42.20672 19.51405 22836 ft 416 kts 191°
2026-05-06 19:33 42.17860 19.50643 22376 ft 413 kts 191°
2026-05-06 19:33 42.15056 19.49885 21925 ft 410 kts 191°
2026-05-06 19:33 42.12310 19.49143 21468 ft 407 kts 191°
2026-05-06 19:33 42.09546 19.48397 20958 ft 406 kts 191°
2026-05-06 19:34 42.06798 19.47655 20484 ft 404 kts 190°
2026-05-06 19:34 42.04044 19.46912 20016 ft 402 kts 190°
2026-05-06 19:34 42.01329 19.46179 19559 ft 399 kts 190°
2026-05-06 19:34 41.98542 19.45677 19086 ft 395 kts 181°
2026-05-06 19:35 41.95803 19.45774 18632 ft 390 kts 172°
2026-05-06 19:35 41.93088 19.46332 18173 ft 386 kts 168°
2026-05-06 19:35 41.90443 19.46988 17720 ft 384 kts 167°
2026-05-06 19:35 41.87837 19.47645 17270 ft 381 kts 167°
2026-05-06 19:36 41.85227 19.48293 16817 ft 378 kts 167°
2026-05-06 19:36 41.82675 19.48914 16369 ft 376 kts 168°
2026-05-06 19:36 41.80102 19.49533 15915 ft 373 kts 168°
2026-05-06 19:36 41.77557 19.50141 15462 ft 371 kts 168°
2026-05-06 19:37 41.75054 19.50736 15015 ft 368 kts 168°
2026-05-06 19:37 41.72618 19.51314 14576 ft 366 kts 168°
2026-05-06 19:37 41.70146 19.51900 14130 ft 363 kts 168°
2026-05-06 19:37 41.67686 19.52482 13681 ft 361 kts 168°
2026-05-06 19:38 41.65214 19.53066 13228 ft 359 kts 168°
2026-05-06 19:38 41.62758 19.53552 12776 ft 357 kts 172°
2026-05-06 19:38 41.60283 19.53901 12315 ft 355 kts 173°
2026-05-06 19:38 41.57845 19.54227 11865 ft 353 kts 173°
2026-05-06 19:39 41.55432 19.54549 11415 ft 351 kts 173°
2026-05-06 19:39 41.52989 19.54877 10954 ft 349 kts 173°
2026-05-06 19:39 41.50606 19.55199 10520 ft 346 kts 173°
2026-05-06 19:39 41.48222 19.55521 10319 ft 336 kts 173°
2026-05-06 19:40 41.45944 19.55829 10195 ft 324 kts 173°
2026-05-06 19:40 41.43727 19.56130 10029 ft 315 kts 173°
2026-05-06 19:40 41.41556 19.56425 9728 ft 310 kts 173°
2026-05-06 19:40 41.39411 19.56718 9437 ft 306 kts 173°
2026-05-06 19:41 41.37308 19.57005 9156 ft 301 kts 173°
2026-05-06 19:41 41.35259 19.57283 8884 ft 297 kts 173°
2026-05-06 19:41 41.33219 19.57561 8614 ft 293 kts 173°
2026-05-06 19:41 41.31231 19.57830 8255 ft 283 kts 173°
2026-05-06 19:42 41.29265 19.58098 7584 ft 282 kts 173°
2026-05-06 19:42 41.27329 19.58361 7125 ft 275 kts 173°
2026-05-06 19:42 41.25458 19.58614 6757 ft 266 kts 173°
2026-05-06 19:42 41.23638 19.58860 6418 ft 261 kts 173°
2026-05-06 19:43 41.21856 19.59101 6094 ft 258 kts 173°
2026-05-06 19:43 41.20087 19.59422 5744 ft 260 kts 162°
2026-05-06 19:43 41.18535 19.60610 5389 ft 260 kts 133°
2026-05-06 19:43 41.17623 19.62655 5039 ft 259 kts 104°
2026-05-06 19:44 41.17523 19.65043 4703 ft 258 kts 84°
2026-05-06 19:44 41.17733 19.67457 4365 ft 260 kts 82°
2026-05-06 19:44 41.17958 19.69848 4115 ft 258 kts 82°
2026-05-06 19:44 41.18180 19.72151 3967 ft 247 kts 77°
2026-05-06 19:45 41.18944 19.74100 3784 ft 235 kts 40°
2026-05-06 19:45 41.20369 19.74944 3678 ft 224 kts
2026-05-06 19:45 41.21910 19.74825 3574 ft 218 kts 353°
2026-05-06 19:45 41.23379 19.74559 3425 ft 212 kts 353°
2026-05-06 19:46 41.24790 19.74315 3347 ft 198 kts 353°
2026-05-06 19:46 41.26128 19.74106 3152 ft 184 kts 354°
2026-05-06 19:46 41.27325 19.73933 2991 ft 166 kts 354°
2026-05-06 19:46 41.28428 19.73780 2877 ft 152 kts 354°
2026-05-06 19:47 41.29450 19.73642 2589 ft 144 kts 354°
2026-05-06 19:47 41.30422 19.73513 2348 ft 140 kts 354°
2026-05-06 19:47 41.31381 19.73386 2139 ft 140 kts 354°
2026-05-06 19:47 41.32350 19.73257 1923 ft 139 kts 354°
2026-05-06 19:48 41.33304 19.73131 1710 ft 139 kts 354°
2026-05-06 19:48 41.34270 19.73004 1494 ft 139 kts 354°
2026-05-06 19:48 41.35232 19.72876 1279 ft 139 kts 354°
2026-05-06 19:48 41.36191 19.72750 1065 ft 138 kts 354°
2026-05-06 19:49 41.37145 19.72624 852 ft 138 kts 354°
2026-05-06 19:49 41.38100 19.72497 637 ft 138 kts 354°
2026-05-06 19:49 41.39042 19.72372 429 ft 138 kts 355°
2026-05-06 19:49 41.40006 19.72253 252 ft 138 kts 355°
2026-05-06 19:50 41.40929 19.72133 135 ft 127 kts 353°
2026-05-06 19:50 41.41651 19.72037 134 ft 78 kts 354°
2026-05-06 19:50 41.42045 19.71985 134 ft 40 kts 354°
2026-05-06 19:50 41.42239 19.71958 134 ft 16 kts 354°
2026-05-06 19:51 41.42285 19.71850 134 ft 15 kts 262°
2026-05-06 19:51 41.42270 19.71707 134 ft 14 kts 262°
2026-05-06 19:51 41.42251 19.71578 134 ft 13 kts 238°
2026-05-06 19:51 41.42168 19.71560 134 ft 12 kts 181°
2026-05-06 19:52 41.42115 19.71561 134 ft 1 kts 190°
2026-05-06 19:52 41.42108 19.71545 134 ft 2 kts 257°
2026-05-06 19:52 41.42105 19.71511 134 ft 3 kts 265°
2026-05-06 19:52 41.42104 19.71492 134 ft 0 kts 266°